PBO Station Position Time Series. Reference Frame : NAM14
Format Version,1.1.1
4-character ID,SAOB
Station name,San_Andreas_Geop
Begin Date, 1997-08-21
End Date, 2023-06-26
Release Date, 2023-06-27
Reference position, 36.7653036741 North Latitude, -121.4471856675 East Longitude, 359.82582 meters elevation,
Date, North (mm), East (mm), Vertical (mm), North Std. Deviation (mm), East Std. Deviation (mm),              Vertical Std. Deviation (mm), Quality,
1997-08-21,0.00, 0.00, 0.00, 2.33, 2.44, 8.89, repro,
1997-08-22,0.67, 2.73, 0.15, 2.45, 2.76, 9.29, repro,
1997-08-23,2.38, 3.30, 4.33, 2.49, 3.47, 9.77, repro,
1997-08-24,2.62, 1.99, 7.11, 2.41, 2.13, 9.17, repro,
1997-08-25,0.24, -1.10, 1.02, 2.55, 2.58, 9.73, repro,
1997-08-26,1.44, 0.43, -3.67, 2.42, 2.64, 9.16, repro,
1997-08-27,0.63, 0.63, 8.56, 2.45, 2.55, 9.30, repro,
1997-08-28,0.44, 0.14, -5.42, 2.41, 2.53, 9.25, repro,
1997-08-29,-0.99, 0.13, 6.11, 2.32, 2.41, 8.60, repro,
1997-08-30,-1.10, -1.47, 6.95, 2.32, 2.42, 8.68, repro,
1997-08-31,0.37, 0.36, 11.01, 2.38, 2.48, 9.00, repro,
1997-09-01,-0.82, -0.29, 7.45, 2.32, 2.52, 8.58, repro,
1997-09-02,1.39, 0.58, -0.53, 2.32, 2.39, 8.76, repro,
1997-09-03,-0.37, 0.20, -4.47, 2.34, 2.33, 8.73, repro,
1997-09-04,0.49, -0.85, 11.18, 2.37, 2.23, 8.65, repro,
1997-09-05,0.68, 1.23, 0.49, 2.31, 2.47, 8.74, repro,
1997-09-06,1.81, -1.79, -3.99, 2.31, 2.30, 8.63, repro,
1997-09-07,1.61, 1.35, 1.48, 2.32, 2.48, 8.77, repro,
1997-09-08,-1.34, 0.50, 1.61, 2.30, 2.29, 8.59, repro,
1997-09-09,-0.69, 0.40, 6.87, 2.39, 2.49, 9.17, repro,
1997-09-10,1.28, 3.18, 3.33, 2.31, 2.33, 8.72, repro,
1997-09-11,1.44, 1.68, 2.06, 2.57, 2.37, 9.84, repro,
1997-09-12,0.74, 1.63, 10.48, 2.27, 1.91, 8.74, repro,
1997-09-13,2.04, 2.98, 7.34, 2.18, 1.89, 8.34, repro,
1997-09-14,0.98, 1.52, 1.44, 2.14, 1.87, 8.13, repro,
1997-09-15,1.27, 2.19, 9.82, 2.21, 1.89, 8.29, repro,
1997-09-16,0.36, 0.80, 2.38, 2.14, 1.85, 8.07, repro,
1997-09-17,0.96, 1.44, 5.69, 2.14, 1.88, 8.18, repro,
1997-09-18,-0.06, 2.87, -4.90, 2.18, 1.95, 8.40, repro,
1997-09-19,-1.20, 1.49, 5.28, 2.16, 2.11, 8.41, repro,
1997-09-20,-0.28, 0.56, -0.59, 2.21, 2.01, 8.34, repro,
1997-09-21,0.44, 1.67, 2.70, 2.17, 1.94, 8.22, repro,
1997-09-22,0.89, 1.59, 3.06, 2.29, 2.25, 8.55, repro,
1997-09-23,1.94, 1.05, 1.02, 2.39, 2.53, 9.07, repro,
1997-09-24,1.07, 2.27, 3.42, 2.38, 2.48, 9.25, repro,
1997-09-25,-1.58, 3.91, 11.94, 2.52, 2.64, 9.56, repro,
1997-09-26,0.44, 2.46, -1.95, 4.23, 4.01, 15.96, repro,
1997-10-03,0.58, 3.31, 5.56, 4.54, 3.65, 16.84, repro,
1997-10-04,0.59, 2.19, 7.53, 2.30, 1.91, 8.66, repro,
1997-10-05,1.02, 2.01, 10.77, 2.30, 2.27, 8.89, repro,
1997-10-06,-0.05, -0.21, 10.41, 2.26, 2.19, 8.67, repro,
1997-10-07,1.01, -2.45, -2.22, 2.33, 2.17, 9.01, repro,
1997-10-08,0.61, 0.28, -3.97, 2.35, 2.28, 8.90, repro,
1997-10-09,0.28, -0.68, -12.53, 2.50, 2.13, 9.37, repro,
1997-10-10,0.79, -2.15, -8.10, 2.39, 2.20, 9.06, repro,
1997-10-11,-0.42, -0.78, -7.28, 2.34, 2.19, 8.67, repro,
1997-10-12,0.50, 1.29, -4.27, 2.39, 2.30, 9.01, repro,
1997-10-13,2.11, 2.18, -6.78, 2.34, 2.22, 8.68, repro,
1997-10-14,0.30, 3.32, 0.29, 2.80, 2.40, 10.16, repro,
1997-10-15,2.00, 0.46, -7.80, 2.66, 2.35, 10.21, repro,
1997-10-16,1.06, 1.27, -6.66, 2.33, 2.05, 8.76, repro,
1997-10-17,-0.26, 2.27, -4.09, 2.61, 2.20, 9.84, repro,
1997-10-18,-0.04, 1.55, -10.79, 2.34, 1.92, 8.69, repro,
1997-10-19,1.62, 0.73, -3.16, 2.43, 2.09, 8.99, repro,
1997-10-20,-0.74, 0.05, -3.06, 2.70, 2.39, 9.65, repro,
1997-10-21,-0.21, 1.51, -5.29, 2.46, 2.25, 9.27, repro,
1997-10-22,0.18, 1.48, -1.58, 2.48, 2.19, 9.41, repro,
1997-10-23,-1.64, 1.39, 1.56, 2.52, 2.12, 9.15, repro,
1997-10-24,1.31, 1.80, 1.34, 2.50, 2.30, 9.17, repro,
1997-10-25,-0.34, 2.36, -5.18, 2.73, 2.42, 10.21, repro,
1997-10-26,0.29, 1.12, -3.15, 2.44, 2.38, 9.38, repro,
1997-10-27,-0.82, 2.72, -7.38, 2.65, 2.47, 10.14, repro,
1997-10-28,-0.05, 2.77, -8.67, 2.74, 2.39, 10.10, repro,
1997-10-29,-1.45, 1.63, -2.58, 2.62, 2.44, 9.77, repro,
1997-10-30,0.22, 3.20, -7.30, 2.45, 2.20, 9.34, repro,
1997-10-31,1.15, 2.19, -2.52, 2.37, 2.03, 8.99, repro,
1997-11-01,-0.36, 2.09, -4.70, 2.32, 1.96, 8.84, repro,
1997-11-02,0.44, 3.27, 3.09, 2.54, 2.13, 9.39, repro,
1997-11-03,1.01, 2.72, 4.31, 2.52, 2.08, 9.51, repro,
1997-11-04,0.68, 3.00, -8.10, 2.55, 2.12, 9.45, repro,
1997-11-05,1.79, 3.10, 2.44, 2.52, 2.15, 9.34, repro,
1997-11-06,0.01, 1.89, -12.97, 2.73, 2.21, 10.18, repro,
1997-11-07,0.81, 2.33, -3.06, 2.58, 2.16, 9.45, repro,
1997-11-08,0.23, 1.69, 1.03, 2.45, 2.34, 9.33, repro,
1997-11-09,-0.89, 1.20, -3.20, 2.41, 2.34, 9.20, repro,
1997-11-10,-2.40, 2.38, -8.78, 2.42, 2.05, 9.29, repro,
1997-11-11,1.54, 2.36, 1.31, 2.34, 2.02, 9.13, repro,
1997-11-12,-0.51, 1.56, 0.56, 2.37, 1.97, 8.92, repro,
1997-11-13,-1.18, 2.35, 18.02, 2.25, 1.96, 8.92, repro,
1997-11-14,-0.26, 0.44, 7.74, 2.57, 2.25, 9.61, repro,
1997-11-15,-2.47, 1.17, -8.67, 2.38, 2.07, 9.16, repro,
1997-11-16,3.87, 1.68, -7.12, 2.53, 2.30, 9.34, repro,
1997-11-17,2.50, 2.64, -5.61, 2.57, 2.26, 9.71, repro,
1997-11-18,3.01, 0.37, 1.61, 2.49, 2.26, 9.41, repro,
1997-11-19,-2.11, 2.15, 0.15, 2.74, 2.29, 10.71, repro,
1997-11-20,1.83, 2.81, -1.35, 2.74, 2.34, 10.22, repro,
1997-11-21,1.78, 0.00, 3.04, 3.18, 2.53, 12.36, repro,
1997-11-22,-1.68, 1.55, 15.96, 2.70, 2.49, 10.36, repro,
1997-11-23,-1.20, 0.59, -3.99, 2.45, 2.02, 9.07, repro,
1997-11-24,-0.66, 2.41, 6.79, 2.70, 2.18, 9.89, repro,
1997-11-25,0.05, 1.68, -2.41, 2.42, 2.04, 9.25, repro,
1997-11-26,-0.13, 2.10, -4.85, 2.82, 2.45, 10.27, repro,
1997-11-27,-0.45, -0.68, 3.12, 2.45, 2.21, 9.25, repro,
1997-11-28,0.54, 0.43, -1.48, 2.42, 2.17, 9.26, repro,
1997-11-29,1.88, 1.67, -1.39, 2.55, 2.26, 9.60, repro,
1997-11-30,-0.31, 1.20, 6.63, 2.29, 1.92, 8.62, repro,
1997-12-01,-0.48, 1.94, -1.54, 2.53, 2.13, 9.15, repro,
1997-12-02,0.50, 1.28, 3.10, 2.49, 2.23, 9.31, repro,
1997-12-03,1.47, 1.99, -8.21, 2.45, 2.28, 9.68, repro,
1997-12-04,-1.72, 0.82, 5.97, 2.28, 1.92, 8.70, repro,
1997-12-05,-0.66, 3.39, -7.20, 2.40, 1.95, 9.10, repro,
1997-12-06,-0.03, 5.01, 0.76, 2.51, 2.08, 9.52, repro,
1997-12-07,0.68, -0.41, -6.57, 2.21, 1.90, 8.45, repro,
1997-12-08,0.21, 0.86, -1.25, 2.45, 2.03, 9.04, repro,
1997-12-09,2.89, 1.31, -3.16, 2.27, 2.03, 8.50, repro,
1997-12-10,2.65, 2.62, -10.25, 2.59, 2.33, 9.85, repro,
1997-12-11,2.10, 2.32, -10.87, 2.39, 2.20, 9.13, repro,
1997-12-12,0.74, 2.45, -7.93, 2.46, 2.15, 9.20, repro,
1997-12-13,1.72, 2.01, -7.51, 2.39, 2.15, 9.01, repro,
1997-12-14,-0.12, -0.01, 2.71, 2.32, 2.01, 9.01, repro,
1997-12-15,1.03, 1.94, -1.59, 2.54, 2.36, 9.83, repro,
1997-12-16,1.41, 1.48, -2.85, 2.52, 2.14, 9.20, repro,
1997-12-17,1.56, 1.96, 2.73, 2.44, 2.06, 9.08, repro,
1997-12-18,0.68, 2.86, 1.96, 2.27, 1.96, 8.59, repro,
1997-12-19,2.60, 1.68, -7.16, 2.34, 2.09, 8.79, repro,
1997-12-21,3.56, 0.85, -6.53, 2.34, 2.18, 8.77, repro,
1997-12-22,0.73, -0.52, -8.43, 2.30, 2.01, 8.66, repro,
1997-12-23,0.80, 2.59, -6.74, 2.44, 2.17, 9.14, repro,
1997-12-24,0.95, 2.54, -9.06, 2.44, 2.27, 9.32, repro,
1997-12-25,0.03, 1.32, -8.07, 2.51, 2.36, 9.15, repro,
1997-12-26,2.95, 2.20, -12.96, 2.37, 2.07, 8.71, repro,
1997-12-27,2.42, 4.03, -15.10, 2.36, 2.21, 8.98, repro,
1997-12-28,1.59, 3.78, -15.06, 2.37, 2.22, 8.88, repro,
1997-12-29,1.69, 3.08, -9.07, 2.36, 2.20, 9.00, repro,
1997-12-30,0.95, 1.70, -10.15, 2.51, 2.34, 9.82, repro,
1997-12-31,0.02, 1.72, -8.97, 2.27, 2.05, 8.76, repro,
1998-01-01,-0.54, 3.20, -2.97, 2.43, 2.31, 9.22, repro,
1998-01-02,0.95, 3.24, -9.23, 2.37, 2.18, 9.52, repro,
1998-01-03,2.54, 1.06, -6.29, 2.30, 2.05, 8.82, repro,
1998-01-04,-0.38, 1.00, -8.28, 2.23, 1.92, 8.50, repro,
1998-01-05,1.52, 1.92, -8.75, 2.35, 2.19, 8.80, repro,
1998-01-06,2.45, 2.29, -11.49, 2.36, 2.22, 8.81, repro,
1998-01-07,3.30, 4.27, -17.42, 2.33, 2.18, 8.89, repro,
1998-01-08,0.61, 1.29, -11.53, 2.41, 2.29, 9.31, repro,
1998-01-09,0.65, 4.46, -11.17, 2.20, 1.97, 8.31, repro,
1998-01-10,-1.49, 1.16, -6.65, 2.26, 1.98, 8.77, repro,
1998-01-11,0.06, 3.49, -12.83, 2.31, 2.09, 8.94, repro,
1998-01-12,0.28, 1.15, -11.85, 2.33, 2.01, 9.12, repro,
1998-01-13,3.35, 1.26, -11.81, 2.44, 2.52, 9.29, repro,
1998-01-14,1.57, 1.44, -9.41, 2.19, 1.96, 8.48, repro,
1998-01-15,-0.82, 3.33, -10.46, 2.23, 1.95, 8.57, repro,
1998-01-16,1.28, 1.37, -7.06, 2.45, 2.23, 9.51, repro,
1998-01-17,1.99, 0.33, -5.93, 2.29, 2.19, 8.78, repro,
1998-01-18,0.13, 3.12, -9.05, 2.28, 1.98, 8.90, repro,
1998-01-19,2.66, 0.19, -16.53, 2.23, 2.13, 8.26, repro,
1998-01-20,1.07, 1.13, -13.16, 2.23, 2.15, 8.56, repro,
1998-01-21,1.39, 2.86, -9.41, 2.50, 2.44, 9.56, repro,
1998-01-22,1.97, 2.48, -11.40, 2.28, 2.24, 8.93, repro,
1998-01-23,2.52, 2.61, -12.40, 2.46, 2.37, 9.82, repro,
1998-01-24,1.01, 2.70, -10.15, 2.31, 2.16, 8.93, repro,
1998-01-25,2.38, 3.83, -4.45, 2.25, 2.20, 8.41, repro,
1998-01-26,2.25, 2.93, -16.79, 2.22, 1.92, 8.57, repro,
1998-01-27,1.56, 2.12, -12.09, 2.14, 1.83, 8.03, repro,
1998-01-28,1.05, 3.38, -15.79, 2.24, 1.87, 8.48, repro,
1998-01-29,1.56, 2.77, -9.09, 2.50, 2.16, 9.50, repro,
1998-01-30,1.34, 3.09, -10.13, 2.41, 2.38, 9.22, repro,
1998-01-31,-0.58, 2.57, -10.69, 2.26, 2.02, 8.65, repro,
1998-02-01,-0.35, 1.43, -12.57, 2.25, 1.88, 8.44, repro,
1998-02-02,0.67, 3.43, -4.96, 2.13, 1.79, 7.94, repro,
1998-02-03,2.65, 1.37, -11.45, 2.13, 1.80, 7.91, repro,
1998-02-04,-0.74, 1.59, -13.02, 2.27, 1.97, 8.32, repro,
1998-02-05,0.53, 2.85, -13.04, 2.33, 2.09, 8.71, repro,
1998-02-06,-0.06, 4.71, -4.45, 2.33, 2.08, 9.07, repro,
1998-02-07,-1.53, 2.87, -24.04, 2.27, 1.96, 8.47, repro,
1998-02-08,3.13, 2.19, -14.25, 2.31, 1.92, 8.87, repro,
1998-02-09,3.19, 2.14, -9.84, 2.33, 2.02, 8.85, repro,
1998-02-10,0.96, 3.80, -10.24, 2.30, 2.19, 8.84, repro,
1998-02-11,-2.04, 3.15, -13.78, 2.53, 2.10, 9.54, repro,
1998-02-12,1.45, 4.55, -3.54, 2.33, 2.03, 8.69, repro,
1998-02-13,-0.29, 3.95, -17.92, 2.16, 1.85, 8.16, repro,
1998-02-14,3.13, 5.46, -9.26, 2.31, 1.94, 8.74, repro,
1998-02-15,2.15, 3.62, -9.24, 2.33, 2.02, 8.79, repro,
1998-02-16,0.91, 3.89, -10.62, 2.29, 2.19, 8.73, repro,
1998-02-17,0.11, 2.40, -10.45, 2.36, 2.05, 9.10, repro,
1998-02-18,3.36, 7.08, -12.56, 2.48, 2.63, 9.68, repro,
1998-02-19,1.89, 5.34, -12.71, 2.27, 2.00, 8.77, repro,
1998-02-20,0.22, 2.48, -13.78, 2.61, 2.41, 9.90, repro,
1998-02-21,1.38, 3.52, -16.76, 2.30, 2.06, 8.58, repro,
1998-02-22,0.91, 1.49, -17.97, 2.30, 1.97, 8.52, repro,
1998-02-23,1.44, 2.90, -16.31, 2.15, 1.93, 8.28, repro,
1998-02-24,2.86, 2.74, -6.13, 2.29, 2.07, 8.46, repro,
1998-02-25,1.32, 1.80, -11.21, 2.30, 2.11, 8.75, repro,
1998-02-26,2.36, 5.05, -6.16, 2.44, 2.39, 9.29, repro,
1998-02-27,2.51, 3.97, -8.13, 2.16, 1.99, 8.31, repro,
1998-02-28,2.20, 5.03, -13.44, 2.27, 2.06, 8.74, repro,
1998-03-01,0.63, 5.14, -11.79, 2.40, 2.18, 9.01, repro,
1998-03-02,-0.35, 4.97, -14.84, 2.30, 2.01, 8.77, repro,
1998-03-03,1.59, 5.28, -11.29, 2.24, 1.90, 8.60, repro,
1998-03-04,0.78, 3.83, -11.85, 2.29, 2.06, 8.77, repro,
1998-03-05,1.68, 3.59, -11.31, 2.21, 2.08, 8.14, repro,
1998-03-06,0.93, 3.42, -8.62, 2.18, 1.94, 8.00, repro,
1998-03-07,1.54, 4.84, -12.09, 2.27, 2.27, 8.56, repro,
1998-03-08,1.67, 4.64, -21.45, 2.24, 2.08, 8.39, repro,
1998-03-09,1.11, 4.66, -10.84, 2.26, 2.09, 8.14, repro,
1998-03-10,1.75, 5.10, -18.35, 2.29, 2.21, 8.55, repro,
1998-03-11,1.12, 4.46, -22.20, 2.25, 2.10, 8.29, repro,
1998-03-12,0.20, 5.25, -11.20, 2.25, 2.10, 8.46, repro,
1998-03-13,0.55, 3.59, -19.13, 2.20, 1.92, 8.26, repro,
1998-03-14,1.31, 4.54, -11.07, 2.22, 2.07, 8.14, repro,
1998-03-15,1.08, 5.45, -16.01, 2.21, 1.97, 8.11, repro,
1998-03-16,-0.04, 4.59, -22.20, 2.19, 1.95, 8.01, repro,
1998-03-17,2.62, 4.93, -15.26, 2.17, 1.96, 8.25, repro,
1998-03-18,1.02, 4.88, -3.68, 2.22, 2.07, 8.33, repro,
1998-03-19,2.14, 3.61, -13.01, 2.21, 2.06, 8.20, repro,
1998-03-20,-0.28, 3.46, -14.76, 2.16, 1.85, 8.06, repro,
1998-03-21,0.99, 4.39, -10.48, 2.13, 1.89, 8.04, repro,
1998-03-22,1.09, 5.31, -14.41, 2.20, 2.04, 8.26, repro,
1998-03-23,1.62, 3.67, -12.63, 2.32, 2.18, 8.63, repro,
1998-03-24,2.52, 2.97, -12.97, 2.22, 1.91, 8.18, repro,
1998-03-25,1.57, 2.28, -11.21, 2.32, 2.01, 8.64, repro,
1998-04-09,-10.04, 4.65, -26.68, 41.02, 25.47, 232.80, repro,
1998-04-10,1.89, 3.59, -15.76, 2.25, 1.95, 8.51, repro,
1998-04-11,1.09, 3.36, -19.18, 2.23, 1.98, 8.47, repro,
1998-04-12,1.98, 3.83, -15.26, 2.18, 1.88, 8.17, repro,
1998-04-13,-0.87, 0.80, -22.33, 2.19, 1.85, 8.12, repro,
1998-04-14,0.70, 3.43, -22.16, 2.12, 1.83, 8.00, repro,
1998-04-15,1.06, 3.01, -23.13, 2.20, 1.86, 8.26, repro,
1998-04-16,1.53, 2.65, -16.50, 2.26, 1.97, 8.50, repro,
1998-04-17,3.60, 4.85, -17.71, 2.21, 1.91, 8.26, repro,
1998-04-18,2.23, 4.94, -15.60, 2.12, 1.81, 7.90, repro,
1998-04-19,1.06, 4.22, -20.06, 2.09, 1.81, 7.93, repro,
1998-04-20,0.91, 4.62, -13.86, 2.14, 1.88, 8.22, repro,
1998-04-21,2.36, 5.10, -14.27, 2.18, 1.84, 8.20, repro,
1998-04-22,2.09, 2.53, -15.02, 2.13, 1.84, 7.98, repro,
1998-04-23,0.84, 4.68, -0.70, 2.08, 1.80, 7.95, repro,
1998-04-24,2.96, 1.91, -9.15, 2.43, 2.18, 9.40, repro,
1998-04-25,1.98, 2.92, -2.46, 2.07, 1.78, 7.84, repro,
1998-04-26,1.14, 4.42, -11.68, 2.08, 1.80, 7.92, repro,
1998-04-27,1.76, 3.19, -12.62, 2.10, 1.78, 7.89, repro,
1998-04-28,2.43, 3.59, -14.72, 2.11, 1.83, 8.02, repro,
1998-04-29,1.98, 6.61, -4.37, 2.29, 1.92, 8.63, repro,
1998-04-30,1.96, 3.25, -5.55, 2.08, 1.84, 7.96, repro,
1998-05-01,2.50, 3.77, -26.52, 2.10, 1.84, 8.09, repro,
1998-05-02,1.43, 2.79, -5.12, 2.07, 1.78, 7.90, repro,
1998-05-03,1.35, 3.18, -3.60, 2.08, 1.78, 7.85, repro,
1998-05-04,1.81, 2.52, -9.13, 2.14, 1.86, 8.08, repro,
1998-05-05,2.72, 3.29, -5.02, 2.09, 1.81, 8.02, repro,
1998-05-06,3.76, 3.85, -2.11, 2.10, 1.84, 8.12, repro,
1998-05-07,2.51, 4.48, -5.40, 2.10, 1.84, 7.95, repro,
1998-05-08,2.22, 4.38, -3.04, 2.11, 1.80, 7.95, repro,
1998-05-09,2.73, 4.73, -15.50, 2.06, 1.78, 7.79, repro,
1998-05-10,1.19, 2.36, -7.98, 2.07, 1.78, 7.87, repro,
1998-05-11,0.34, 2.86, -4.30, 2.07, 1.79, 7.90, repro,
1998-05-12,2.02, 1.88, 3.04, 2.09, 1.79, 7.93, repro,
1998-05-13,1.10, 3.01, -2.59, 2.09, 1.79, 7.92, repro,
1998-05-14,1.52, 3.69, -7.59, 2.08, 1.78, 7.88, repro,
1998-05-15,2.25, 3.64, -8.62, 2.05, 1.77, 7.76, repro,
1998-05-16,2.25, 3.44, -11.55, 2.08, 1.78, 7.92, repro,
1998-05-17,1.91, 2.87, -6.58, 2.13, 1.89, 8.19, repro,
1998-05-18,1.05, 4.92, -8.76, 2.12, 1.88, 8.06, repro,
1998-05-19,1.51, 2.67, -6.63, 2.11, 1.87, 8.07, repro,
1998-05-20,0.66, 5.08, -7.38, 2.11, 1.83, 7.97, repro,
1998-05-21,1.75, 3.21, -12.33, 2.15, 1.88, 8.12, repro,
1998-05-22,0.55, 3.64, -10.91, 2.13, 1.88, 8.14, repro,
1998-05-23,0.83, 4.41, -9.09, 2.17, 1.91, 8.31, repro,
1998-05-24,1.75, 4.34, -3.82, 2.12, 1.86, 8.07, repro,
1998-05-25,1.28, 2.03, -8.81, 2.10, 1.87, 8.03, repro,
1998-05-26,0.17, 2.82, -11.09, 2.20, 1.97, 8.36, repro,
1998-05-27,0.81, 1.84, -3.77, 2.21, 1.89, 8.44, repro,
1998-05-28,1.36, 1.53, -12.39, 2.10, 1.88, 8.08, repro,
1998-05-29,1.67, 1.97, -15.01, 2.17, 1.95, 8.23, repro,
1998-05-30,1.41, 3.73, -8.13, 2.19, 1.98, 8.32, repro,
1998-05-31,2.68, 4.37, -7.14, 2.15, 1.88, 8.16, repro,
1998-06-01,1.31, 4.47, -4.99, 2.47, 2.17, 9.42, repro,
1998-06-02,0.45, 3.51, -1.64, 2.16, 1.92, 8.24, repro,
1998-06-03,0.29, 3.43, -3.09, 2.11, 1.87, 8.06, repro,
1998-06-04,1.80, 3.12, -6.12, 2.12, 1.87, 8.06, repro,
1998-06-05,1.67, 3.42, -7.40, 2.17, 1.97, 8.34, repro,
1998-06-06,1.91, 4.18, -6.63, 2.11, 1.87, 8.04, repro,
1998-06-07,2.17, 2.98, -13.01, 2.14, 1.92, 8.07, repro,
1998-06-08,0.48, 3.30, -6.54, 2.10, 1.87, 8.07, repro,
1998-06-09,1.17, 4.74, -3.44, 2.05, 1.79, 7.84, repro,
1998-06-10,2.48, 4.29, -2.39, 2.12, 1.82, 7.92, repro,
1998-06-11,1.91, 1.35, -15.42, 2.05, 1.78, 7.80, repro,
1998-06-12,0.99, 2.64, -1.70, 2.06, 1.79, 7.84, repro,
1998-06-13,1.86, 4.34, -5.69, 2.08, 1.78, 7.87, repro,
1998-06-14,2.39, 4.48, -5.43, 2.07, 1.79, 7.90, repro,
1998-06-15,3.96, 2.77, -5.50, 2.14, 1.88, 8.12, repro,
1998-06-16,0.60, 3.73, 0.48, 2.20, 1.91, 8.34, repro,
1998-06-17,2.26, 4.49, -0.72, 2.04, 1.77, 7.73, repro,
1998-06-18,1.45, 5.85, -0.05, 2.07, 1.81, 7.89, repro,
1998-06-19,-0.55, 5.81, -8.47, 2.07, 1.79, 7.90, repro,
1998-06-20,0.95, 5.41, -5.56, 2.05, 1.78, 7.83, repro,
1998-06-21,0.72, 5.18, -6.27, 2.06, 1.80, 7.90, repro,
1998-06-22,1.52, 5.02, -4.44, 2.11, 1.82, 8.15, repro,
1998-06-23,1.00, 3.96, -2.95, 2.12, 1.81, 8.17, repro,
1998-06-24,0.47, 5.27, -1.09, 2.13, 1.85, 8.14, repro,
1998-06-25,-0.28, 4.38, 10.89, 2.13, 1.84, 8.11, repro,
1998-06-26,1.36, 3.73, 0.91, 2.11, 1.86, 8.04, repro,
1998-06-27,1.62, 5.65, 2.57, 2.12, 1.92, 8.25, repro,
1998-06-28,1.22, 2.76, 0.22, 2.06, 1.79, 7.82, repro,
1998-06-29,0.42, 4.37, -3.78, 2.09, 1.84, 7.91, repro,
1998-06-30,0.85, 3.89, -5.13, 2.06, 1.79, 7.87, repro,
1998-07-01,1.46, 3.91, -5.29, 2.12, 1.82, 8.17, repro,
1998-07-02,1.63, 4.56, -11.10, 2.04, 1.78, 7.80, repro,
1998-07-03,1.09, 3.06, -3.66, 2.05, 1.77, 7.75, repro,
1998-07-04,0.87, 3.46, 0.74, 2.07, 1.78, 7.80, repro,
1998-07-05,0.76, 3.49, -1.68, 2.13, 1.81, 8.17, repro,
1998-07-06,0.75, 3.86, -1.83, 2.14, 1.83, 8.25, repro,
1998-07-07,0.73, 4.29, -6.75, 2.12, 1.81, 7.96, repro,
1998-07-08,1.14, 4.31, -1.43, 2.12, 1.82, 7.98, repro,
1998-07-09,0.63, 3.68, -1.36, 2.10, 1.84, 8.06, repro,
1998-07-10,1.31, 4.70, 2.56, 2.10, 1.86, 8.10, repro,
1998-07-11,0.77, 2.57, -5.05, 2.09, 1.79, 7.91, repro,
1998-07-12,1.53, 4.71, -11.69, 2.11, 1.82, 8.18, repro,
1998-07-13,1.51, 4.47, -3.62, 2.06, 1.80, 7.92, repro,
1998-07-14,1.64, 3.05, -5.25, 2.13, 1.81, 8.23, repro,
1998-07-15,0.56, 4.93, -3.56, 2.23, 1.87, 8.61, repro,
1998-07-16,0.99, 3.57, -2.27, 2.08, 1.80, 7.93, repro,
1998-07-17,-0.44, 4.99, -1.09, 2.07, 1.80, 7.89, repro,
1998-07-18,1.85, 2.87, 1.59, 2.14, 1.83, 8.25, repro,
1998-07-19,0.32, 3.00, 1.14, 2.09, 1.81, 7.87, repro,
1998-07-20,0.77, 3.22, -4.09, 2.06, 1.79, 7.80, repro,
1998-07-21,0.22, 3.58, -3.71, 2.13, 1.84, 8.31, repro,
1998-07-22,0.64, 3.53, -7.55, 2.23, 1.84, 8.35, repro,
1998-07-23,1.37, 4.12, -6.13, 2.35, 1.92, 8.67, repro,
1998-07-24,1.46, 5.51, 0.49, 2.19, 1.83, 8.38, repro,
1998-07-25,0.59, 5.71, -12.10, 2.15, 1.87, 8.39, repro,
1998-07-26,1.21, 3.18, -4.19, 2.08, 1.81, 7.90, repro,
1998-07-27,1.43, 5.38, -11.06, 2.20, 1.91, 8.76, repro,
1998-07-28,0.93, 5.53, -3.71, 2.10, 1.84, 8.02, repro,
1998-07-29,1.11, 6.37, -1.37, 2.05, 1.78, 7.76, repro,
1998-07-30,0.23, 5.17, 3.18, 2.11, 1.81, 8.06, repro,
1998-07-31,0.97, 4.08, -1.21, 2.16, 1.88, 8.35, repro,
1998-08-01,2.43, 5.19, -5.36, 2.21, 1.96, 8.49, repro,
1998-08-02,1.24, 4.55, -4.69, 2.12, 1.81, 8.08, repro,
1998-08-03,1.50, 4.14, -3.32, 2.11, 1.82, 8.13, repro,
1998-08-04,0.25, 3.42, -5.57, 2.14, 1.94, 8.37, repro,
1998-08-05,0.86, 4.13, -3.56, 2.19, 1.99, 8.76, repro,
1998-08-06,0.60, 4.47, 0.95, 2.07, 1.81, 7.90, repro,
1998-08-07,0.87, 4.00, 0.26, 2.12, 1.81, 8.14, repro,
1998-08-08,0.40, 3.37, 3.51, 2.09, 1.80, 8.02, repro,
1998-08-09,0.81, 3.71, 0.34, 2.07, 1.80, 7.83, repro,
1998-08-10,2.92, 4.94, 2.24, 2.12, 1.81, 8.10, repro,
1998-08-11,1.22, 4.05, 3.23, 2.07, 1.81, 7.90, repro,
1998-08-12,3.15, 4.01, -3.23, 2.08, 1.81, 7.89, repro,
1998-08-13,3.75, 2.71, -9.81, 2.05, 1.78, 7.73, repro,
1998-08-14,3.81, 1.87, -3.97, 2.12, 1.83, 8.05, repro,
1998-08-15,2.63, 1.20, 3.26, 2.07, 1.79, 7.83, repro,
1998-08-16,3.43, 1.79, -5.78, 2.22, 1.92, 8.43, repro,
1998-08-17,6.29, 1.12, -9.36, 2.19, 1.82, 8.25, repro,
1998-08-18,5.60, 1.34, -8.31, 2.13, 1.81, 8.00, repro,
1998-08-19,4.31, 2.56, -2.01, 2.13, 1.83, 8.04, repro,
1998-08-20,5.20, 3.39, -10.90, 2.05, 1.81, 7.78, repro,
1998-08-21,3.21, 1.45, -7.96, 2.05, 1.79, 7.81, repro,
1998-08-22,4.24, 1.82, -10.43, 2.09, 1.87, 8.14, repro,
1998-08-23,3.42, 1.35, 4.87, 2.06, 1.78, 7.80, repro,
1998-08-24,4.03, 2.01, -2.97, 2.06, 1.80, 7.82, repro,
1998-08-25,4.53, 0.99, -1.91, 2.08, 1.80, 7.83, repro,
1998-08-26,5.13, 1.26, -7.83, 2.08, 1.80, 7.80, repro,
1998-08-27,4.60, 1.57, 0.12, 2.08, 1.81, 7.92, repro,
1998-08-28,4.89, 0.86, -4.57, 2.07, 1.80, 7.89, repro,
1998-08-29,4.63, 0.22, -12.44, 2.06, 1.79, 7.80, repro,
1998-08-30,5.49, 0.69, -7.84, 2.15, 1.83, 8.04, repro,
1998-08-31,4.02, 0.72, -1.48, 2.08, 1.81, 7.89, repro,
1998-09-01,4.59, 1.00, 0.82, 2.15, 1.91, 8.40, repro,
1998-09-02,4.38, 1.37, 1.71, 2.07, 1.82, 7.87, repro,
1998-09-03,4.27, 0.87, -2.78, 2.06, 1.79, 7.86, repro,
1998-09-04,4.95, 2.46, -1.68, 2.10, 1.87, 8.09, repro,
1998-09-05,3.97, 0.86, -5.85, 2.05, 1.80, 7.83, repro,
1998-09-06,5.87, 1.62, -7.16, 2.10, 1.90, 8.09, repro,
1998-09-07,4.85, 2.52, 6.74, 2.08, 1.85, 7.95, repro,
1998-09-08,3.90, 0.51, 5.94, 2.19, 1.86, 8.22, repro,
1998-09-09,7.02, 0.47, -0.37, 2.11, 1.85, 8.10, repro,
1998-09-10,5.08, -0.04, 1.16, 2.06, 1.80, 7.86, repro,
1998-09-11,5.49, 1.05, -5.67, 2.14, 1.83, 8.07, repro,
1998-09-12,4.71, 1.71, -3.00, 2.05, 1.80, 7.82, repro,
1998-09-13,4.86, 1.62, 0.52, 2.08, 1.80, 7.83, repro,
1998-09-14,4.82, -0.26, 4.69, 2.18, 1.88, 8.29, repro,
1998-09-15,4.90, -1.48, -1.78, 2.05, 1.79, 7.77, repro,
1998-09-16,5.66, -0.79, 8.39, 2.07, 1.83, 7.94, repro,
1998-09-17,4.21, -0.62, -0.88, 2.14, 1.84, 8.11, repro,
1998-09-18,4.83, -0.51, -4.42, 2.14, 1.83, 8.06, repro,
1998-09-19,5.92, 0.05, -6.20, 2.04, 1.79, 7.76, repro,
1998-09-20,5.31, -1.25, 9.41, 2.08, 1.81, 7.88, repro,
1998-09-21,4.20, -0.02, -3.26, 2.06, 1.82, 7.93, repro,
1998-09-22,3.61, -0.38, -9.86, 2.23, 1.93, 8.76, repro,
1998-09-23,3.09, 0.20, -2.48, 2.32, 1.96, 8.84, repro,
1998-09-24,4.50, 0.10, -1.47, 2.38, 2.04, 8.92, repro,
1998-09-25,5.18, -1.03, -5.19, 2.38, 2.02, 8.78, repro,
1998-09-26,4.30, -1.92, 1.95, 2.29, 1.97, 8.46, repro,
1998-09-27,5.74, -0.14, -7.82, 2.23, 1.92, 8.47, repro,
1998-09-28,5.07, -0.55, -3.30, 2.26, 1.91, 8.37, repro,
1998-09-29,5.56, -0.62, -8.13, 2.14, 1.83, 7.95, repro,
1998-09-30,4.93, -1.18, -6.26, 2.15, 1.87, 8.03, repro,
1998-10-01,4.50, -2.00, -3.30, 2.22, 1.97, 8.34, repro,
1998-10-02,4.90, -0.57, -7.07, 2.18, 1.93, 8.20, repro,
1998-10-03,4.79, -1.17, -8.87, 2.58, 2.32, 9.64, repro,
1998-10-04,5.96, -1.61, -9.38, 2.46, 2.04, 9.08, repro,
1998-10-05,5.57, -2.06, -2.74, 2.19, 1.96, 8.33, repro,
1998-10-06,4.43, -0.23, -1.50, 2.40, 2.07, 8.84, repro,
1998-10-07,5.59, -1.65, 5.59, 2.33, 2.04, 8.58, repro,
1998-10-08,6.34, -1.67, 1.74, 2.50, 2.19, 9.51, repro,
1998-10-09,4.80, -0.65, -10.64, 2.50, 2.23, 9.20, repro,
1998-10-10,7.00, -1.27, -6.31, 2.32, 2.09, 9.01, repro,
1998-10-11,5.12, -0.47, -1.93, 2.31, 1.97, 8.66, repro,
1998-10-12,4.30, -0.03, -2.08, 2.38, 2.09, 8.91, repro,
1998-10-13,4.26, 0.46, 2.20, 2.39, 2.13, 8.76, repro,
1998-10-14,5.35, -0.29, -4.06, 2.35, 2.07, 8.91, repro,
1998-10-15,6.70, -1.63, -5.03, 2.54, 2.21, 9.76, repro,
1998-10-16,6.14, -1.44, -12.80, 2.40, 2.09, 8.76, repro,
1998-10-17,4.83, 0.35, -10.92, 2.47, 2.15, 9.34, repro,
1998-10-18,4.91, -0.51, -11.88, 2.47, 2.30, 9.17, repro,
1998-10-19,4.76, 1.67, -13.17, 2.54, 2.32, 9.44, repro,
1998-10-20,4.33, -0.16, -7.64, 2.39, 2.05, 9.04, repro,
1998-10-21,5.56, -0.79, -4.95, 2.25, 1.96, 8.20, repro,
1998-10-22,5.13, -0.10, -5.66, 2.30, 2.07, 8.42, repro,
1998-10-23,3.63, 0.78, -11.55, 2.32, 2.01, 8.61, repro,
1998-10-24,5.55, 0.85, -13.03, 2.38, 2.09, 8.92, repro,
1998-10-25,5.24, -2.22, -7.78, 2.12, 1.86, 8.04, repro,
1998-10-26,4.27, -0.90, -5.14, 2.26, 2.01, 8.40, repro,
1998-10-27,4.21, -0.06, -9.05, 2.33, 2.06, 8.63, repro,
1998-10-28,7.10, 0.02, -11.95, 2.35, 2.12, 8.88, repro,
1998-10-30,6.47, -0.36, -6.37, 2.20, 1.99, 8.41, repro,
1998-10-31,4.29, -0.30, -5.18, 2.22, 1.91, 8.29, repro,
1998-11-01,6.23, -0.34, -15.17, 2.23, 1.91, 8.29, repro,
1998-11-02,7.19, 0.89, -8.38, 2.28, 1.95, 8.81, repro,
1998-11-03,7.26, -1.74, -15.70, 2.39, 2.08, 9.08, repro,
1998-11-04,6.60, -0.42, -3.45, 2.60, 2.29, 9.72, repro,
1998-11-05,9.03, -1.18, 1.60, 2.35, 2.09, 8.82, repro,
1998-11-06,7.06, -2.56, -5.47, 2.23, 1.96, 8.34, repro,
1998-11-07,5.19, -2.79, -15.32, 2.13, 1.86, 8.27, repro,
1998-11-08,5.12, -1.79, -11.04, 2.19, 1.95, 8.20, repro,
1998-11-09,6.44, -1.53, -7.35, 2.08, 1.82, 7.92, repro,